Current weather by "City, St" or "zip code"  
 

Current Conditions: Santa Ynez, Santa Ynez Airport, CA

Fog/Mist


48.0 F

Last Updated on May 21 2022, 1:55 am PDT
Humidity: 94%
Wind Speed: N 0.0 mph
Barometer 29.88 in
Dewpoint: 46.4 F
Visibility: 5.00 mi
Precip: --
Heat Index: NA
Wind Chill: NA
Current conditions at:

Santa Ynez, Santa Ynez Airport, CA (KIZA)

Lat: 34.60694 Lon: 120.07556

Local Radar Image active severe weather and emergency alerts image image weather storm and storm spotter reports image weather observation monitoring service image
Local
Radar
Active
Alerts
Storm Reports Obs
Monitoring

Sign-up For Email & Text Message Weather Alert Notification Services



Advertise Here

Observation History for Santa Ynez, Santa Ynez Airport, CA


Time Wind
(mph)
Vis
(mi)
Weather Precip (in) Temperature (F) Relative
Humidity
Wind
Chill
(F)
Heat
Index
(F)
Pressure
Air Dwpt altimeter
(in)
sea level
(mb)
Rmks
1:55 am PDT N 0.0 5.00 Fog/Mist -- 48.0 46.4 94% NA NA 29.88 M
1:35 am PDT N 0.0 5.00 Fog/Mist -- 50.0 46.4 88% NA NA 29.88 M
1:15 am PDT N 0.0 5.00 Overcast with Haze -- 50.0 44.6 82% NA NA 29.88 M
12:55 am PDT N 0.0 5.00 Fog/Mist -- 50.0 46.4 88% NA NA 29.88 M
12:15 am PDT N 0.0 6.00 Overcast with Haze -- 50.0 46.4 88% NA NA 29.89 M
11:55 pm PDT N 0.0 6.00 Overcast with Haze -- 52.0 46.4 82% NA NA 29.89 M
11:35 pm PDT N 0.0 6.00 Overcast with Haze -- 52.0 46.4 82% NA NA 29.89 M
11:15 pm PDT N 0.0 5.00 Overcast with Haze -- 52.0 46.4 82% NA NA 29.89 M
10:55 pm PDT W 3.5 6.00 Overcast with Haze -- 52.0 46.4 82% NA NA 29.89 M
10:15 pm PDT SW 4.6 6.00 Overcast with Haze -- 54.0 46.4 77% 53 NA 29.88 M
9:55 pm PDT SW 5.8 6.00 Overcast with Haze -- 54.0 46.4 77% 53 NA 29.88 M
9:35 pm PDT SW 5.8 6.00 Overcast with Haze -- 54.0 46.4 77% 53 NA 29.87 M
9:15 pm PDT SW 4.6 6.00 Overcast with Haze -- 55.0 48.2 77% 54 NA 29.86 M
8:55 pm PDT W 5.8 7.00 Overcast -- 55.0 48.2 77% 54 NA 29.85 M
8:35 pm PDT W 8.1 7.00 Mostly Cloudy -- 57.0 48.2 72% 55 NA 29.85 M
8:15 pm PDT W 8.1 7.00 A Few Clouds -- 59.0 50.0 72% 58 NA 29.84 M
7:15 pm PDT W 10.4 10.00 Fair -- 64.0 51.8 64% NA NA 29.82 M
6:55 pm PDT W 10.4 10.00 Fair -- 66.0 51.8 60% NA NA 29.81 M
6:35 pm PDT SW 10.4 10.00 Fair -- 66.0 51.8 60% NA NA 29.80 M
6:15 pm PDT W 12.7 10.00 Fair -- 68.0 51.8 56% NA NA 29.80 M
5:55 pm PDT SW 11.5 10.00 Fair -- 68.0 51.8 56% NA NA 29.80 M
5:35 pm PDT SW 10.4 10.00 Fair -- 70.0 51.8 53% NA NA 29.80 M
5:15 pm PDT W 10.4 10.00 Fair -- 70.0 51.8 53% NA NA 29.79 M
4:55 pm PDT W 9.2 10.00 Fair -- 70.0 51.8 53% NA NA 29.79 M

Regional Weather Observation


Santa Ynez, Santa Ynez Airport, CA (KIZA)

Fog/Mist
48.0 F

Lompoc, Lompoc Airport, CA (KLPC)

Fair
45.0 F

Lompoc, Vandenberg Air Force Base, CA (KVBG)

Fair
45.0 F

Oceano County Airport, CA (KL52)

Fog/Mist
45.0 F

Santa Barbara, Santa Barbara Municipal Airport, CA (KSBA)

Fair
54.0 F

San Luis Obispo, San Luis Obispo County-Mc Chesney Field, CA (KSBP)

Fair
48.0 F

Advertise Here


Advertise Here